#timestamp,LO_Frequency,Hit,StdDev 
1651449615.1,286046998.7,N
1651449635.8,286047001.2,N
1651449655.7,286046998.7,N
1651449675.5,286046998.3,N
1651449695.4,286046999.3,N
1651449715.2,286046996.5,N
1651449735.0,286046997.5,N
1651449735.9,286046997.5,N
1651449755.8,286046998.8,N
1651449775.6,286047000.6,N
1651449795.4,286046999.7,N
1651449815.3,286047002.8,N
1651449835.1,286047002.4,N
1651449855.9,286047000.0,N
1651449875.7,286047000.2,N
1651449895.5,286047000.3,N
1651449915.4,286046999.8,N
1651449935.2,286047002.7,N
1651449955.0,286046999.8,N
1651449955.9,286046999.8,N
1651449975.8,286047002.6,N
1651449995.6,286047001.7,N
1651450015.5,286047004.3,N
1651450035.3,286047001.3,N
1651450055.1,286047001.5,N
1651450075.9,286047004.4,N
1651450095.7,286047001.5,N
1651450115.5,286047001.6,N
1651450135.4,286046999.7,N
1651450155.2,286047002.0,N
1651450175.1,286047001.5,N
1651450176.0,286047001.5,N
1651450195.8,286047003.7,N
1651450215.6,286047004.3,N
1651450235.5,286047001.7,N
1651450255.3,286047003.9,N
1651450275.1,286047003.8,N
1651450295.9,286047003.3,N
1651450345.8,286047003.4,E
1651450355.7,286047004.4,N
1651450375.5,286047000.5,P
1651450395.4,286047000.2,N
1651450415.2,286047000.8,N
1651450435.0,286047000.7,N
1651450435.9,286047000.7,N
1651450455.8,286046998.3,N
1651450475.6,286046998.9,N
1651450495.4,286046998.3,N
1651450515.3,286047000.5,N
1651450535.1,286047000.5,N
1651450555.9,286047001.0,N
1651450575.7,286046998.2,N
1651450595.5,286046998.1,N
1651450615.4,286047000.9,N
1651450635.2,286047000.6,N
1651450655.0,286047000.4,N
1651450655.9,286047000.4,N
1651450675.8,286047000.8,N
1651450695.6,286047000.3,N
1651450715.5,286047000.6,N
1651450735.3,286047002.4,N
1651450755.1,286046999.9,N
1651450775.9,286046999.8,N
1651450795.7,286047002.6,N
1651450815.5,286047001.4,N
1651450835.4,286047004.4,Y
1651450855.2,286047002.4,P
1651450875.1,286047004.4,P
1651450876.0,286047004.4,N
1651450895.8,286047001.7,N
1651450915.6,286047004.4,N
1651450935.5,286047003.2,N
1651450955.3,286047004.2,N
1651450975.2,286047001.6,N
1651450995.9,286047002.4,N
1651451015.7,286047001.6,N
1651451035.6,286047002.7,N
1651451055.4,286047000.1,N
1651451075.2,286047002.5,N
1651451095.1,286047002.1,N
1651451096.0,286047002.1,N
1651451115.8,286047002.6,N
1651451135.7,286047002.3,N
1651451155.5,286047002.8,N
1651451175.3,286047002.4,N
1651451195.2,286047002.7,N
1651451215.0,286047001.8,N
1651451215.9,286047001.8,N
1651451235.7,286047001.3,N
1651451255.6,286047002.5,N
1651451275.4,286047001.9,N
1651451295.3,286047002.2,N
1651451315.1,286046999.7,N
1651451316.0,286046999.7,N
1651451335.8,286047002.8,N
1651451355.7,286047002.8,N
1651451375.5,286047002.4,N
1651451395.3,286046999.9,N
1651451415.2,286047000.2,N
1651451435.0,286047000.5,N
1651451435.9,286047000.5,N
1651451455.8,286046998.1,N
1651451475.6,286046998.2,N
1651451495.4,286047000.7,N
1651451515.3,286046999.7,N
1651451535.1,286047002.3,N
1651451555.8,286047002.4,N
1651451575.7,286046999.8,N
1651451625.6,286047000.1,E
1651451635.5,286046999.7,N
1651451655.3,286047002.3,P
1651451675.2,286047002.0,N
1651451695.9,286047002.3,N
1651451715.7,286047001.8,N
1651451735.6,286047001.7,N
1651451755.4,286047001.5,N
1651451775.2,286047003.7,Y
1651451795.1,286047002.4,P
1651451796.0,286047002.4,P
1651451815.8,286047002.6,P
1651451835.7,286047001.9,Y
1651451855.5,286047000.9,P
1651451875.3,286046998.2,N
1651451895.2,286046998.5,N
1651451915.0,286046999.3,N
1651451915.9,286046999.3,N
1651451935.8,286046999.1,N
1651451955.6,286046999.1,N
1651451975.4,286047001.2,N
1651451995.3,286046998.9,N
1651452015.1,286046999.1,N
1651452035.9,286046998.9,N
1651452055.7,286046998.4,N
1651452075.5,286047000.5,N
1651452095.4,286046999.9,N
1651452115.2,286047000.2,N
1651452135.0,286047000.6,N
1651452135.9,286047000.6,N
1651452155.8,286046998.4,N
1651452175.6,286046998.8,N
1651452195.5,286046998.9,N
1651452215.3,286047001.0,N
1651452235.1,286046998.1,N
1651452255.9,286047000.9,N
1651452275.7,286046998.6,N
1651452295.5,286046998.3,N
1651452315.4,286047000.3,N
1651452335.2,286046999.7,N
1651452355.1,286047002.7,N
1651452356.0,286047002.7,N
1651452375.8,286047002.1,N
1651452395.6,286047001.4,N
1651452415.5,286047002.6,N
1651452435.3,286046999.9,N
1651452455.1,286047000.4,N
1651452475.9,286046999.7,N
1651452495.7,286046999.8,N
1651452515.6,286046999.8,N
1651452535.4,286047000.8,N
1651452555.2,286047001.2,N
1651452575.1,286047000.7,N
1651452576.0,286047000.7,N
1651452595.8,286047001.0,N
1651452615.7,286047001.0,N
1651452635.5,286046998.2,N
1651452655.3,286046998.6,N
1651452675.2,286046998.5,N
1651452695.0,286046998.1,N
1651452695.9,286046998.1,N
1651452715.7,286046998.8,N
1651452735.6,286046998.3,N
1651452755.4,286046998.6,N
1651452775.3,286046998.3,N
1651452795.1,286046998.6,N
1651452815.9,286046998.7,N
1651452835.7,286046998.5,N
1651452855.5,286046998.2,N
1651452875.4,286046998.4,N
1651452895.2,286047001.2,N
1651452915.0,286046998.8,N
1651452915.9,286046998.8,N
1651452935.8,286046999.3,N
1651452955.6,286046999.1,N
1651452975.5,286046999.6,N
1651452995.3,286046996.5,Y
1651453015.1,286046998.4,P
1651453035.9,286046999.3,N
1651453055.7,286046997.1,P
1651453075.5,286046997.0,Y
1651453095.4,286046998.4,P
1651453115.2,286046998.7,P
1651453135.1,286046999.5,P
1651453136.0,286046999.5,N
1651453155.8,286046998.4,Y
1651453175.6,286047000.2,P
1651453195.5,286047001.0,N
